Laramie, WY

12:24 AM MDT on May 25, 2017 (GMT -0600)
Laramie Regional

Weather History for KLAR - October, 2010

Change the Weather History Date:

Tuesday, October 26, 2010

  Actual Average Record
Temperature  
Mean Temperature 30 °F 38 °F  
Max Temperature 36 °F 52 °F 72 °F (1977)
Min Temperature 24 °F 25 °F -10 °F (1997)
Degree Days  
Heating Degree Days 35 27  
Month to date heating degree days 476 577  
Since 1 July heating degree days 840 1102  
Cooling Degree Days 0 0  
Month to date cooling degree days 0 0  
Year to date cooling degree days 73 67  
Moisture  
Dew Point 16 °F    
Average Humidity 55    
Maximum Humidity 68    
Minimum Humidity 41    
Precipitation  
Precipitation T in 0.02 in 0.24 in (1970)
Month to date precipitation 1.46 0.69  
Year to date precipitation 10.06 9.95  
Sea Level Pressure  
Sea Level Pressure 29.65 in    
Wind  
Wind Speed 25 mph (West)    
Max Wind Speed 45 mph    
Max Gust Speed 60 mph    
Visibility 8 miles    
Events Snow    
T = Trace of Precipitation, MM = Missing Value Source: NWS Daily Summary

Daily Weather History Graph

Daily Weather History Graph

Search for Another Location

Airport or City:

Trip Planner

Search our weather history database for the weather conditions in past years. The results will help you decide how hot, cold, wet, or windy it might be!

Date:

Astronomy

Oct. 26, 2010 Rise Set
Actual Time 7:27 AM MDT 6:05 PM MDT
Civil Twilight 6:58 AM MDT 6:33 PM MDT
Nautical Twilight 6:26 AM MDT 7:06 PM MDT
Astronomical Twilight 5:54 AM MDT 7:38 PM MDT
Moon 8:27 PM MDT (10/26) 11:12 AM MDT (10/26)
Length of Visible Light 11h 35m
Length of Day
10h 38m
Waning Gibbous, 87% of the Moon is Illuminated
Oct 26
Waning Gibbous
Oct 30
Last Quarter
Nov 5
New
Nov 13
First Quarter
Nov 21
Full

Hourly Weather History & Observations

Time (MDT) Temp. Windchill Dew Point Humidity Pressure Visibility Wind Dir Wind Speed Gust Speed Precip Events Conditions
12:53 AM 28.0 °F 12.0 °F 18.0 °F 66% 29.55 in 10.0 mi West 31.1 mph 42.6 mph N/A   Clear
1:53 AM 27.0 °F 12.5 °F 18.0 °F 69% 29.58 in 10.0 mi West 23.0 mph 35.7 mph N/A   Clear
2:53 AM 27.0 °F 11.9 °F 18.0 °F 69% 29.62 in 10.0 mi West 25.3 mph 38.0 mph N/A   Clear
3:53 AM 27.0 °F 10.8 °F 18.0 °F 69% 29.57 in 10.0 mi West 29.9 mph 41.4 mph N/A   Clear
4:53 AM 26.1 °F 8.6 °F 16.0 °F 66% 29.60 in 10.0 mi West 34.5 mph 46.0 mph N/A   Clear
5:53 AM 27.0 °F 11.3 °F 15.1 °F 61% 29.59 in 10.0 mi WNW 27.6 mph 36.8 mph N/A   Clear
6:53 AM 26.1 °F 12.7 °F 15.1 °F 63% 29.60 in 10.0 mi West 18.4 mph 32.2 mph N/A   Clear
7:53 AM 26.1 °F 12.3 °F 12.9 °F 58% 29.62 in 10.0 mi WNW 19.6 mph 26.5 mph N/A   Scattered Clouds
8:53 AM 27.0 °F 14.7 °F 12.9 °F 56% 29.65 in 10.0 mi West 16.1 mph 20.7 mph N/A   Overcast
9:53 AM 28.0 °F 13.9 °F 12.0 °F 51% 29.67 in 10.0 mi WSW 23.0 mph 29.9 mph N/A   Overcast
10:53 AM 30.9 °F 17.5 °F 14.0 °F 50% 29.62 in 10.0 mi WSW 24.2 mph 35.7 mph N/A   Scattered Clouds
11:53 AM 33.1 °F 18.4 °F 14.0 °F 46% 29.56 in 10.0 mi West 33.4 mph 41.4 mph N/A   Clear
12:53 PM 34.0 °F 20.8 °F 15.1 °F 46% 29.59 in 10.0 mi West 27.6 mph 34.5 mph N/A   Mostly Cloudy
1:53 PM 33.8 °F 21.0 °F 15.8 °F 48% 29.61 in 10.0 mi West 25.3 mph 34.5 mph N/A   Overcast
2:53 PM 33.1 °F 20.1 °F 15.1 °F 48% 29.60 in 10.0 mi WNW 25.3 mph 33.4 mph N/A   Mostly Cloudy
3:53 PM 33.1 °F 21.2 °F 17.1 °F 52% 29.62 in 10.0 mi West 20.7 mph 35.7 mph N/A   Partly Cloudy
4:53 PM 33.1 °F 19.3 °F 12.0 °F 42% 29.65 in 10.0 mi West 28.8 mph 38.0 mph N/A   Clear
5:13 PM 26.6 °F 9.6 °F 19.4 °F 74% 29.67 in 2.5 mi West 33.4 mph 48.3 mph 0.00 in Snow Light Snow
5:20 PM 26.6 °F 8.7 °F 19.4 °F 74% 29.65 in 3.0 mi West 38.0 mph 48.3 mph 0.00 in Snow Light Snow
5:43 PM 26.6 °F 7.5 °F 19.4 °F 74% 29.67 in 1.5 mi WNW 44.9 mph 55.2 mph 0.00 in Snow Light Snow
5:53 PM 24.1 °F 7.1 °F 21.0 °F 88% 29.73 in 0.8 mi WNW 28.8 mph 55.2 mph 0.00 in Snow Light Snow
5:58 PM 24.8 °F 8.4 °F 19.4 °F 80% 29.68 in 2.0 mi WNW 27.6 mph 44.9 mph 0.00 in Snow Light Snow
6:01 PM 24.8 °F 8.4 °F 19.4 °F 80% 29.67 in 3.0 mi WNW 27.6 mph 42.6 mph 0.00 in Snow Light Snow
6:53 PM 28.0 °F 14.9 °F 17.1 °F 63% 29.70 in 10.0 mi West 19.6 mph 28.8 mph 0.00 in   Scattered Clouds
7:53 PM 28.0 °F 14.6 °F 15.1 °F 58% 29.73 in 10.0 mi West 20.7 mph 29.9 mph N/A   Clear
8:53 PM 27.0 °F 13.5 °F 14.0 °F 58% 29.74 in 10.0 mi West 19.6 mph 28.8 mph N/A   Clear
9:53 PM 27.0 °F 11.9 °F 15.1 °F 61% 29.74 in 10.0 mi West 25.3 mph 31.1 mph N/A   Clear
10:53 PM 26.1 °F 12.3 °F 15.1 °F 63% 29.74 in 10.0 mi West 19.6 mph - N/A   Clear
11:53 PM 26.1 °F 10.1 °F 15.1 °F 63% 29.73 in 10.0 mi West 27.6 mph 33.4 mph N/A   Clear